Change the Weather History Date:

Friday, November 15, 2013

  Actual Average Record
Temperature  
Mean Temperature 57 °F -  
Max Temperature 80 °F 70 °F 89 °F (1981)
Min Temperature 34 °F 34 °F 12 °F (1976)
Degree Days  
Heating Degree Days 8    
Growing Degree Days 7 (Base 50)    
Moisture  
Dew Point 39 °F    
Average Humidity 57    
Maximum Humidity 87    
Minimum Humidity 23    
Precipitation  
Precipitation 0.00 in - - ()
Sea Level Pressure  
Sea Level Pressure 29.89 in    
Wind  
Wind Speed 3 mph (SW)    
Max Wind Speed 18 mph    
Max Gust Speed 24 mph    
Visibility 10 miles    
Events Rain    
Averages and records for this station are not official NWS values.
T = Trace of Precipitation, MM = Missing Value Source: NWS Daily Summary

Daily Weather History Graph

Daily Weather History Graph

Search for Another Location

Airport or City:

Trip Planner

Search our weather history database for the weather conditions in past years. The results will help you decide how hot, cold, wet, or windy it might be!

Date:

Astronomy

Nov. 15, 2013 Rise Set
Actual Time 7:21 AM CST 5:55 PM CST
Civil Twilight 6:56 AM CST 6:20 PM CST
Nautical Twilight 6:26 AM CST 6:50 PM CST
Astronomical Twilight 5:57 AM CST 7:19 PM CST
Moon 4:48 PM CST (11/15) 5:27 AM CST (11/15)
Length of Visible Light 11h 24m
Length of Day
10h 33m
Waxing Gibbous, 96% of the Moon is Illuminated
Nov 15
Waxing Gibbous
Nov 17
Full
Nov 25
Last Quarter
Dec 2
New
Dec 9
First Quarter

Hourly Weather History & Observations

Time (CST) Temp. Windchill Dew Point Humidity Pressure Visibility Wind Dir Wind Speed Gust Speed Precip Events Conditions
12:15 AM 44.2 °F 40.3 °F 36.5 °F 74% 29.97 in 10.0 mi WNW 6.9 mph - N/A   Clear
12:55 AM 43.7 °F - 35.4 °F 73% 29.95 in 10.0 mi Calm Calm - N/A   Clear
1:15 AM 41.7 °F - 33.3 °F 72% 29.97 in 10.0 mi Calm Calm - N/A   Clear
1:35 AM 41.2 °F - 33.8 °F 75% 29.97 in 10.0 mi Calm Calm - N/A   Clear
1:55 AM 39.6 °F 34.0 °F 32.7 °F 76% 29.97 in 10.0 mi ESE 8.1 mph - N/A   Clear
2:15 AM 40.5 °F 38.4 °F 33.8 °F 77% 29.97 in 10.0 mi ESE 3.5 mph - N/A   Clear
2:35 AM 40.3 °F 37.1 °F 32.9 °F 75% 29.96 in 10.0 mi East 4.6 mph - N/A   Clear
2:55 AM 40.3 °F - 33.6 °F 77% 29.97 in 10.0 mi Calm Calm - N/A   Clear
3:15 AM 39.7 °F - 33.1 °F 77% 29.97 in 10.0 mi Calm Calm - N/A   Clear
3:35 AM 41.2 °F - 34.9 °F 78% 29.97 in 10.0 mi Calm Calm - N/A   Clear
3:55 AM 41.2 °F - 34.9 °F 78% 29.97 in 5.0 mi Calm Calm - N/A   Haze
4:15 AM 40.3 °F - 34.0 °F 78% 29.96 in 7.0 mi Calm Calm - N/A   Clear
4:35 AM 39.6 °F - 33.1 °F 78% 29.96 in 10.0 mi Calm Calm - N/A   Clear
4:55 AM 37.4 °F - 32.2 °F 81% 29.96 in 10.0 mi Calm Calm - N/A   Clear
5:15 AM 36.9 °F - 32.4 °F 84% 29.96 in 10.0 mi Calm Calm - N/A   Clear
5:35 AM 36.0 °F - 32.0 °F 86% 29.96 in 10.0 mi Calm Calm - N/A   Clear
5:55 AM 36.3 °F - 32.2 °F 85% 29.96 in 10.0 mi Calm Calm - N/A   Clear
6:15 AM 36.0 °F - 32.0 °F 86% 29.97 in 10.0 mi Calm Calm - N/A   Clear
6:35 AM 35.4 °F - 32.0 °F 87% 29.96 in 10.0 mi Calm Calm - N/A   Clear
6:55 AM 36.7 °F - 32.2 °F 84% 29.96 in 10.0 mi Calm Calm - N/A   Clear
7:15 AM 35.6 °F - 31.6 °F 85% 29.96 in 7.0 mi Calm Calm - N/A   Clear
7:35 AM 34.9 °F - 31.1 °F 86% 29.97 in 10.0 mi Calm Calm - N/A   Clear
7:55 AM 35.4 °F - 32.0 °F 87% 29.98 in 10.0 mi Calm Calm - N/A   Clear
8:15 AM 39.2 °F - 34.3 °F 83% 29.98 in 10.0 mi Calm Calm - N/A   Clear
8:35 AM 42.3 °F - 36.5 °F 80% 29.98 in 10.0 mi Calm Calm - N/A   Clear
8:55 AM 44.4 °F - 37.6 °F 77% 29.98 in 10.0 mi Calm Calm - N/A   Clear
9:15 AM 46.4 °F - 38.5 °F 74% 29.98 in 10.0 mi Calm Calm - N/A   Clear
9:35 AM 48.2 °F - 39.0 °F 71% 29.98 in 10.0 mi Calm Calm - N/A   Clear
9:55 AM 50.9 °F - 40.3 °F 67% 29.98 in 10.0 mi Calm Calm - N/A   Clear
10:15 AM 54.7 °F - 41.4 °F 61% 29.97 in 10.0 mi NNW 4.6 mph - N/A   Clear
10:35 AM 58.3 °F - 43.0 °F 57% 29.98 in 10.0 mi NNW 4.6 mph - N/A   Clear
10:55 AM 59.9 °F - 43.3 °F 54% 29.98 in 10.0 mi Calm Calm - N/A   Clear
11:15 AM 62.6 °F - 43.7 °F 50% 29.96 in 10.0 mi Calm Calm - N/A   Clear
11:35 AM 65.3 °F - 43.7 °F 46% 29.95 in 10.0 mi Calm Calm - N/A   Clear
11:55 AM 66.2 °F - 42.8 °F 43% 29.93 in 10.0 mi Calm Calm - N/A   Scattered Clouds
12:15 PM 68.2 °F - 42.8 °F 40% 29.92 in 10.0 mi Calm Calm - N/A   Scattered Clouds
12:35 PM 70.3 °F - 42.8 °F 37% 29.90 in 10.0 mi Calm Calm - N/A   Clear
12:55 PM 72.5 °F - 43.2 °F 35% 29.89 in 10.0 mi Calm Calm - N/A   Clear
1:15 PM 73.2 °F - 43.3 °F 34% 29.87 in 10.0 mi Calm Calm - N/A   Clear
1:35 PM 77.0 °F - 44.6 °F 32% 29.85 in 10.0 mi Calm Calm - N/A   Clear
1:55 PM 78.6 °F - 44.2 °F 30% 29.84 in 10.0 mi WSW 5.8 mph - N/A   Scattered Clouds
2:15 PM 77.4 °F - 43.9 °F 30% 29.82 in 10.0 mi SSW 4.6 mph - N/A   Scattered Clouds
2:35 PM 77.9 °F - 42.8 °F 29% 29.82 in 10.0 mi WSW 16.1 mph 20.7 mph N/A   Clear
2:55 PM 78.3 °F - 43.0 °F 28% 29.81 in 10.0 mi SW 12.7 mph - N/A   Clear
3:15 PM 78.8 °F - 41.4 °F 26% 29.80 in 10.0 mi WSW 15.0 mph 21.9 mph N/A   Clear
3:35 PM 79.0 °F - 39.4 °F 24% 29.79 in 10.0 mi SW 17.3 mph 21.9 mph N/A   Scattered Clouds
3:55 PM 80.6 °F - 39.6 °F 23% 29.79 in 10.0 mi WSW 17.3 mph 21.9 mph N/A   Scattered Clouds
4:15 PM 79.7 °F - 39.4 °F 24% 29.79 in 10.0 mi WSW 17.3 mph 24.2 mph N/A   Clear
4:35 PM 77.4 °F - 40.1 °F 26% 29.78 in 10.0 mi West 10.4 mph - N/A   Clear
4:55 PM 75.7 °F - 40.6 °F 28% 29.78 in 10.0 mi West 5.8 mph - N/A   Scattered Clouds
5:15 PM 74.7 °F - 40.6 °F 29% 29.77 in 10.0 mi West 3.5 mph - N/A   Scattered Clouds
5:35 PM 75.2 °F - 40.5 °F 29% 29.77 in 10.0 mi SW 4.6 mph - N/A   Scattered Clouds
5:55 PM 73.9 °F - 39.6 °F 29% 29.77 in 10.0 mi WSW 10.4 mph - N/A   Mostly Cloudy
6:15 PM 70.9 °F - 38.8 °F 31% 29.77 in 10.0 mi SW 5.8 mph - N/A   Scattered Clouds
6:35 PM 68.0 °F - 38.5 °F 34% 29.77 in 10.0 mi Calm Calm - N/A   Scattered Clouds
6:55 PM 66.2 °F - 38.7 °F 36% 29.78 in 10.0 mi SW 4.6 mph - N/A   Clear
7:15 PM 65.3 °F - 39.0 °F 38% 29.78 in 10.0 mi SW 6.9 mph - N/A   Clear
7:35 PM 62.4 °F - 39.7 °F 43% 29.78 in 10.0 mi SSW 6.9 mph - N/A   Clear
7:55 PM 61.0 °F - 39.0 °F 44% 29.78 in 10.0 mi South 8.1 mph - N/A   Clear
8:15 PM 61.0 °F - 38.3 °F 43% 29.78 in 10.0 mi South 6.9 mph - N/A   Clear
8:35 PM 61.2 °F - 37.9 °F 42% 29.79 in 10.0 mi South 8.1 mph - N/A   Clear
8:55 PM 62.6 °F - 37.4 °F 39% 29.80 in 10.0 mi South 5.8 mph - N/A   Clear
9:15 PM 62.6 °F - 38.3 °F 41% 29.79 in 10.0 mi South 6.9 mph - N/A   Clear
9:35 PM 62.1 °F - 38.8 °F 42% 29.80 in 10.0 mi SSW 5.8 mph - N/A   Scattered Clouds
9:55 PM 60.8 °F - 39.4 °F 45% 29.81 in 10.0 mi SW 6.9 mph - N/A   Overcast
10:15 PM 59.9 °F - 46.8 °F 62% 29.85 in 7.0 mi West 18.4 mph 23.0 mph N/A Rain Rain
10:35 PM 61.0 °F - 50.4 °F 68% 29.84 in 10.0 mi West 10.4 mph - N/A   Overcast
10:55 PM 61.5 °F - 51.8 °F 70% 29.83 in 10.0 mi West 6.9 mph - N/A   Overcast
11:15 PM 61.0 °F - 51.8 °F 72% 29.83 in 10.0 mi West 4.6 mph - N/A   Scattered Clouds
11:35 PM 62.2 °F - 51.3 °F 67% 29.83 in 10.0 mi Calm Calm - N/A   Scattered Clouds
11:55 PM 61.5 °F - 51.8 °F 70% 29.84 in 10.0 mi WSW 11.5 mph 16.1 mph N/A   Scattered Clouds